Tracking 31027 objects as of 19-Jul-2025
HD Live streaming from Space Station
objects crossing your sky now

MORELOS 2

Track MORELOS 2 now!
MORELOS 2 is classified as:


NORAD ID: 16274
Int'l Code: 1985-109B
Perigee: 35,965.7 km
Apogee: 36,020.9 km
Inclination: 14.8 °
Period: 1,446.3 minutes
Semi major axis: 42364 km
RCS: 7.6304 m2 (large)
Launch date: November 27, 1985
Source: Mexico (MEX)
Launch site: AIR FORCE EASTERN TEST RANGE (AFETR)
Your satellite tracking list
GEOTAIL
Track 1 satellite(s)




NASA's NSSDC Master Catalog

Two Line Element Set (TLE):
1 16274U 85109B   25199.56298490  .00000046  00000-0  00000-0 0  9992
2 16274  14.7540 359.2130 0006515 150.0174  21.2037  0.99564211 43033
Source of the keplerian elements: AFSPC